Weather in Sosnovka

Russia / Tomsk District     59°07′10″N   81°17′52″E
temp.,
°C
wind,
m/s
gust,
m/s
humid.,
%
clouds,
%
prec.,
mm/h
press.,
hPa
HPBL,
m
22 april, thu
thu2201:00−7nne45885 0.0 103650
04:00−9n33925 0.0 103825
07:00−9nnw33925 0.0 104137
10:00−3n34805 0.0 1043265
13:00−1nnw23796 0.0 1044585
16:000nw33846 0.0 1045329
19:00−1nw33835 0.0 104699
22:00−5nnw11845 0.0 104610
23 april, fri
fri2301:00−5s118530 0.0 104710
04:00−6s22909 0.0 104712
07:00−6s22925 0.0 104725
10:000ssw22835 0.0 1048189
13:00+2se338611 0.0 1047363
16:00+3se44805 0.0 1045320
19:00+2se468013 0.0 1044133
22:000sse56835 0.0 104464
24 april, sat
sat2401:00−1s45845 0.0 104462
04:00−2sw22885 0.0 104221
07:00−2s22895 0.0 104223
10:00+2s34764 0.0 1040286
13:00+5s23588 0.0 10381012
16:00+7s12505 0.0 10361182
19:00+6se226144 0.0 1034220
22:00+2se4475100 0.0 103424
25 april, sun
sun2501:00+1s3380100 0.0 103321
04:00+1sw3381100 0.0 103222
07:00+1wsw2283100 0.0 103227
10:00+4sw2370100 0.0 1032268
13:00+7ssw2358100 0.0 10311049
16:00+9ssw234887 0.0 10301506
19:00+9s224845 0.0 10291345
22:00+6s447195 0.0 102945
26 april, mon
mon2601:00+4ssw348092 0.0 102956
04:00+3ssw228590 0.0 102816
07:00+3sse338495 0.0 102854
10:00+6sse456994 0.0 1027415
13:00+9sse5553100 0.0 10261187
16:00+10s5647100 0.0 10251737
19:00+10s6753100 0.0 10241317
22:00+8sse5969100 0.0 1024230